Location: Byhalia Creek
(34.8270°N, 89.8040°W)
Time: 08:31:56
(UTC+00:00)

PAYLOAD B - Pass Details

Date: 22 April 2026
Orbit: 848 x 869 km, 99.0° (Epoch: 15 May)

Event Time Altitude Azimuth Distance (km) Brightness Sun altitude
Exits shadow 02:27:33 30° 173° (S) 1,486 5.1 -21.6°
Maximum altitude 02:30:25 80° 257° (WSW) 865 4.2 -22.0°
Drops below altitude 10° 02:35:55 10° 344° (NNW) 2,477 7.3 -23.0°
Sets 02:38:18 0° 346° (NNW) 3,417 8.1 -23.4°
